Location: Barrio de Canyet
(41.4665°N, 2.2381°E)
Time: 09:00:32
(UTC+00:00)

Daily predictions for brighter satellites

Satellite Brightness Start Highest point End
(mag) Time Altitude Azimuth Time Altitude Azimuth Time Altitude Azimuth
ARGOS Delta rocket 4.2 18:45:26 10° SSE 18:50:39 60° ENE 18:56:03 10° N
Cosmos 2369 Rocket 2.6 18:46:04 10° NNW 18:51:43 69° WSW 18:57:18 10° SSE
Cosmos 1602 Rocket 4.2 18:50:45 10° NNW 18:55:07 62° W 18:59:25 10° S
IRIDIUM 114 4.4 18:51:23 10° N 18:56:34 61° E 19:01:43 10° SSE
Hubble Space Telescope 3.0 18:56:29 10° S 18:57:47 11° S 18:59:05 10° SSE
Cosmos 2058 Rocket 4.1 18:54:04 10° SE 18:57:47 26° E 19:01:31 10° NNE
Cosmos 1726 Rocket 4.0 18:56:12 10° SSE 19:00:21 42° E 19:04:33 10° NNE
Meteor 1-21 Rocket 4.3 18:56:39 10° NNW 19:02:12 82° W 19:07:45 10° S
Cosmos 1461 3.9 18:59:38 10° NNW 19:03:50 35° NE 19:08:01 11° ESE
Cosmos 1726 2.3 19:01:18 10° S 19:05:01 81° W 19:08:46 10° N
SL-4 R/B 3.4 19:02:14 10° W 19:05:16 29° NNW 19:08:18 10° NE
IRIDIUM 103 4.3 19:00:32 10° N 19:05:46 75° E 19:10:58 10° S
Cosmos 921 Rocket 4.3 19:03:20 10° N 19:06:41 23° ENE 19:09:43 11° ESE
Meteor 2-10 4.3 19:01:20 10° S 19:06:49 87° W 19:12:31 10° N
Cosmos 1703 3.6 19:03:38 10° N 19:07:28 46° E 19:11:18 10° SSE
Cosmos 407 Rocket 3.5 19:03:12 10° S 19:08:15 59° ESE 19:13:18 10° NNE
Cosmos 1908 3.4 19:05:03 10° S 19:08:47 51° E 19:12:34 10° NNE
Cosmos 1340 Rocket 3.5 19:05:36 10° SSE 19:09:15 34° E 19:12:54 10° NNE
Cosmos 1437 2.7 19:06:38 10° NNW 19:09:39 77° W 19:12:39 10° S
Cosmos 2184 Rocket 4.0 19:03:52 10° N 19:10:09 74° E 19:16:20 10° SSE
FREGAT/IRIS 2.8 19:07:37 10° SSE 19:10:11 41° ENE 19:12:46 10° N
ADEOS Rocket 4.2 19:04:53 10° N 19:10:47 46° WNW 19:16:10 10° SW
Cosmos 1825 Rocket 3.5 19:06:30 10° N 19:10:53 73° E 19:15:11 10° SSE
Cosmos 2228 3.0 19:06:57 10° S 19:11:13 67° E 19:15:32 10° NNE
Cosmos 1656 Rocket 3.7 19:07:52 10° NNW 19:13:34 86° ENE 19:19:06 10° SSE
Cosmos 1328 3.9 19:10:15 10° N 19:14:12 54° E 19:18:06 10° SSE
ATLAS 5 CENTAUR R/B 4.1 19:11:43 10° S 19:14:47 13° SE 19:18:53 11° ESE
Cosmos 1943 4.3 19:09:45 10° SW 19:15:13 50° WNW 19:20:46 10° NNE
MOS 1 4.3 19:11:50 10° SSE 19:17:23 63° ENE 19:22:59 10° N
Resurs 01 Rocket 3.2 19:17:43 13° E 19:19:54 19° ENE 19:22:58 10° NNE
H-2A R/B 4.2 19:12:34 10° W 19:20:35 17° SW 19:23:58 10° S
STARLINK-52 3.2 19:18:09 10° WSW 19:21:20 68° NW 19:24:32 10° NE
Nadezhda 1 Rocket 4.0 19:17:04 10° S 19:23:25 70° E 19:29:43 10° NNE
BREEZE M DEB (TANK) 2.7 19:21:34 10° SSW 19:24:06 40° SE 19:29:35 10° ENE
MOS 1 Rocket 4.4 19:19:41 10° NNE 19:24:30 32° E 19:29:17 10° SSE
Cosmos 1758 Rocket 4.0 19:21:21 10° NNW 19:25:38 63° W 19:29:52 10° S
CZ-2C R/B 3.4 19:21:20 10° NE 19:25:49 29° E 19:30:19 10° SSE
Cosmos 1023 Rocket 4.4 19:22:04 10° S 19:27:11 67° ESE 19:32:17 10° NNE
SPOT 3 Rocket 4.0 19:22:44 11° SE 19:27:24 43° ENE 19:32:18 10° N
SL-24 R/B - RUBIN 2 4.4 19:22:08 10° SW 19:27:38 80° NW 19:33:54 10° NNE
ARGOS 3.1 19:23:25 10° SSE 19:28:47 77° ENE 19:34:10 10° N
FALCON 9 DEB 3.7 19:26:13 10° WSW 19:29:40 59° NW 19:33:08 10° NE
Cosmos 1606 Rocket 4.0 19:26:30 10° SSW 19:30:54 69° W 19:35:22 10° N
GEOS 3 Rocket 3.7 19:27:23 10° SSE 19:32:30 80° SW 19:37:45 10° NW
Cosmos 2154 Rocket 4.0 19:26:49 10° N 19:33:11 71° E 19:39:27 10° SSE
Cosmos 1954 Rocket 4.2 19:28:29 10° S 19:33:30 48° ESE 19:38:29 10° NNE
Cosmos 1953 Rocket 3.6 19:29:28 10° N 19:33:58 87° E 19:38:27 10° S
USA 186 1.9 19:31:05 10° S 19:34:24 76° W 19:37:33 10° NNW
NOSS 3-4 (A) 3.9 19:28:30 10° NW 19:35:38 84° NE 19:42:33 14° SE
NOSS 3-4 (C) 3.9 19:28:36 10° NW 19:35:44 84° NE 19:42:37 14° SE
STARLINK-67 2.5 19:36:10 10° NW 19:38:42 61° NE 19:39:24 40° E
Meteor 1-11 4.2 19:38:26 10° N 19:44:12 86° E 19:49:52 10° S
BREEZE-M DEB (TANK) 4.0 19:38:37 10° SW 19:44:47 37° SSE 19:45:56 28° ESE
STARLINK-1234 3.2 19:52:11 10° NW 19:55:15 52° NE 19:55:47 45° ENE
STARLINK-1209 3.1 19:52:39 10° NW 19:55:43 56° NE 19:56:15 47° ENE
STARLINK-1233 3.6 19:53:06 10° NW 19:56:06 39° NNE 19:56:38 36° ENE
STARLINK-1212 3.6 19:53:35 10° NW 19:56:34 39° NNE 19:57:04 36° ENE
STARLINK-1105 3.6 19:54:01 10° NW 19:57:00 40° NNE 19:57:31 37° ENE
STARLINK-1206 3.6 19:54:29 10° NW 19:57:28 40° NNE 19:57:54 37° ENE
STARLINK-1247 3.6 19:54:57 10° NW 19:57:55 40° NNE 19:58:22 38° NE
STARLINK-1227 3.6 19:55:20 10° NW 19:58:21 41° NNE 19:58:47 38° ENE
STARLINK-1218 3.5 19:55:50 10° NW 19:58:50 41° NNE 19:59:13 39° NE
STARLINK-1226 3.5 19:56:16 10° NW 19:59:17 41° NNE 19:59:40 39° NE
STARLINK-1254 3.5 19:56:41 10° NW 19:59:42 42° NNE 20:00:06 40° NE
Iridium 4 Rocket 4.4 19:56:30 10° NNE 19:59:05 21° ENE 19:59:05 21° ENE
STARLINK-1215 3.5 19:57:11 10° NW 20:00:11 42° NNE 20:00:31 40° NE
STARLINK-1231 3.5 19:57:39 10° NW 20:00:38 42° NNE 20:00:58 41° NE
STARLINK-1232 3.4 19:58:32 10° NW 20:01:33 43° NNE 20:01:50 42° NE
Abrixas rocket 2.4 19:59:00 10° NW 20:01:54 48° NNE 20:02:07 47° NE
USA 234 3.7 19:56:01 10° ENE 20:01:58 37° SE 20:07:55 10° SSW
STARLINK-1217 3.4 19:58:59 10° NW 20:02:00 44° NNE 20:02:16 42° NE
H-2A R/B 3.1 19:57:24 10° S 20:02:20 43° W 20:07:10 10° NNW
STARLINK-1208 3.4 19:59:24 10° NW 20:02:26 44° NNE 20:02:43 43° NE
GPS 2-04 Rocket1 4.3 19:59:27 10° SSW 20:01:56 21° S 20:01:56 21° S
STARLINK-1229 3.4 19:59:52 10° NW 20:02:54 44° NNE 20:03:07 43° NE
Cosmos 1892 4.4 20:00:02 10° NNE 20:02:13 19° ENE 20:02:13 19° ENE
ATLAS 5 CENTAUR R/B 3.0 19:59:24 10° WSW 20:03:16 38° NW 20:07:36 10° NNE
STARLINK-1271 3.4 20:00:19 10° NW 20:03:21 45° NNE 20:03:34 44° NE
STARLINK-1270 3.4 20:00:47 10° NW 20:03:49 45° NNE 20:04:00 44° NE
STARLINK-1154 3.4 20:01:14 10° NW 20:04:16 46° NNE 20:04:26 45° NE
STARLINK-1197 3.3 20:02:08 10° NW 20:05:10 47° NNE 20:05:18 46° NE
STARLINK-1189 3.3 20:02:34 10° NW 20:05:35 47° NNE 20:05:43 47° NE
STARLINK-1198 3.3 20:03:02 10° NW 20:06:04 47° NNE 20:06:10 47° NE
STARLINK-1188 3.3 20:03:27 10° NW 20:06:30 48° NNE 20:06:35 48° NE
STARLINK-1235 2.9 20:04:04 10° NW 20:07:12 64° NE 20:07:18 64° NE
STARLINK-1187 3.1 20:04:30 10° NW 20:07:37 56° NE 20:07:42 56° NE
ATLAS 2AS CENTAUR R/B 3.2 20:00:26 10° NW 20:07:44 59° WSW 20:13:00 17° SSE
STARLINK-1199 3.3 20:05:24 10° NW 20:08:29 50° NE 20:08:31 50° NE
STARLINK-1191 3.3 20:05:50 10° NW 20:08:55 51° NE 20:08:56 51° NE
STARLINK-1210 3.3 20:06:17 10° NW 20:09:23 51° NE 20:09:23 51° NE
STARLINK-1221 3.2 20:06:44 10° NW 20:09:49 52° NNE 20:09:49 52° NNE
STARLINK-1219 3.2 20:07:12 10° NW 20:10:15 52° NNE 20:10:15 52° NNE
Cosmos 1140 Rocket 4.3 20:05:21 10° SW 20:10:23 52° WNW 20:15:27 10° N
STARLINK-1222 3.2 20:07:38 10° NW 20:10:40 53° NNE 20:10:40 53° NNE
COSMOS 2455 2.8 20:04:49 10° NNW 20:10:54 86° ENE 20:13:57 31° SSE
STARLINK-1211 3.2 20:08:06 10° NW 20:11:07 53° NNE 20:11:07 53° NNE
STARLINK-1214 3.2 20:08:32 10° NW 20:11:33 54° NNE 20:11:33 54° NNE
STARLINK-1245 3.2 20:09:01 10° NW 20:11:57 53° NNE 20:11:57 53° NNE
STARLINK-1238 3.2 20:09:26 10° NW 20:12:25 54° NNE 20:12:25 54° NNE
STARLINK-1205 3.2 20:10:22 10° NW 20:13:16 55° NNE 20:13:16 55° NNE
STARLINK-1204 3.2 20:10:49 10° NW 20:13:42 55° NNE 20:13:42 55° NNE
ERBS 3.8 20:11:29 10° NNW 20:14:20 25° NE 20:14:20 25° NE
Cosmos 1300 3.0 20:18:02 18° SSW 20:20:42 64° W 20:24:31 10° N
Resurs 1-3 3.8 20:18:54 31° S 20:20:57 71° WSW 20:25:20 10° NNW
Spot 2 Rocket 3.9 20:22:15 41° E 20:22:54 43° ENE 20:27:43 10° N
Cosmos 1850 Rocket 4.0 20:24:22 46° SSE 20:25:25 55° ESE 20:30:29 10° NNE
STARLINK-1240 4.5 20:21:39 10° NW 20:25:34 38° NNE 20:26:01 37° NE
Terra 3.9 20:29:53 14° NE 20:29:53 14° NE 20:31:39 10° NNE
STARLINK-1216 4.4 20:26:36 10° NW 20:30:32 41° NNE 20:30:47 40° NE
In-Cosmos 22 Rocket 4.2 20:25:16 10° N 20:31:07 71° E 20:32:45 47° SE
MetOp-B 4.1 20:32:14 53° ESE 20:33:16 64° ENE 20:38:35 10° N
STARLINK-1237 4.3 20:31:32 10° NW 20:35:31 44° NNE 20:35:32 44° NNE
Cosmos 1833 Rocket 4.3 20:39:01 19° NE 20:39:01 19° NE 20:40:54 10° NE
STARLINK-1202 4.2 20:36:31 10° NW 20:40:21 46° NNE 20:40:21 46° NNE
Cosmos 468 Rocket 3.9 20:37:10 10° NNW 20:42:18 64° ENE 20:42:31 63° E
Cosmos 192 4.2 20:38:05 10° NNW 20:43:03 80° ENE 20:43:22 76° ESE
SL-4 R/B 4.2 20:43:33 10° NW 20:45:40 15° N 20:46:33 14° NNE
ERS-1 Rocket 3.9 20:47:00 34° NE 20:47:00 34° NE 20:50:52 10° N
STARLINK-1246 4.3 20:46:26 10° NW 20:49:54 49° N 20:49:54 49° N
RESURS DK-1 3.9 20:47:42 10° N 20:50:15 27° NNE 20:50:15 27° NNE
BREEZE M DEB (TANK) 4.3 20:45:11 10° W 20:52:15 39° NNW 20:53:25 30° NNE
STARLINK-1224 4.4 20:51:26 10° NW 20:54:43 48° NNW 20:54:43 48° NNW
COSMOS 2406 3.0 20:54:52 66° S 20:55:40 81° ESE 21:01:24 10° NNE
Resurs 01 Rocket 2.6 20:55:17 38° SW 20:56:05 42° W 21:00:17 10° NNW
Meteor 2-12 Rocket 4.3 20:50:37 10° N 20:56:44 81° E 20:57:32 68° SSE
STARLINK-1203 4.4 20:53:46 10° NW 20:57:04 51° NNW 20:57:04 51° NNW
Cosmos 2058 3.5 20:53:59 10° NNW 20:57:23 55° NW 20:57:23 55° NW
CZ-4C R/B 4.0 20:53:22 10° NNW 20:59:39 32° NE 21:01:49 28° ENE
Cosmos 1812 Rocket 4.4 21:02:26 45° W 21:02:52 47° WNW 21:07:04 10° N
Cosmos 2218 Rocket 4.2 20:58:59 10° NNW 21:05:09 66° W 21:07:06 44° SSW
CZ-2C R/B 4.1 21:01:28 10° N 21:06:06 34° WNW 21:10:46 10° SW
Cosmos 2151 4.5 21:05:21 10° N 21:07:34 30° N 21:07:34 30° N
USA 245 4.4 21:11:51 67° SSW 21:12:30 74° W 21:18:55 10° NNW
Cosmos 1697 Rocket 3.3 21:09:41 10° NNW 21:14:29 46° NE 21:14:29 46° NE
Cosmos 2369 4.3 21:09:50 10° NNW 21:14:33 45° NE 21:14:33 45° NE
SPOT 1/Viking Rocket 4.0 21:30:43 59° NW 21:30:43 59° NW 21:35:06 10° NNW
Cosmos 1763 Rocket 4.2 21:27:20 10° NNW 21:31:31 48° WNW 21:31:31 48° WNW
Cosmos 1656 4.0 21:27:56 10° NNW 21:32:50 61° WNW 21:32:50 61° WNW
Cosmos 540 Rocket 4.4 21:30:47 10° NNW 21:34:20 44° N 21:34:20 44° N
SL-16 R/B 4.4 21:33:30 10° NNE 21:36:11 14° NE 21:36:11 14° NE
Nadezhda 3 Rocket 4.1 21:41:26 73° NNW 21:41:26 73° NNW 21:47:11 10° N
Cosmos 2322 Rocket 4.4 21:40:42 10° NNE 21:43:04 14° NE 21:43:04 14° NE
USA 234 3.5 21:38:44 10° NE 21:45:12 66° NW 21:51:39 10° WSW
Cosmos 1980 Rocket 3.3 21:39:59 10° NNW 21:43:48 37° NNE 21:43:48 37° NNE
ATLAS CENTAUR R/B 4.3 21:57:52 10° NNW 21:58:21 13° NNW 21:58:21 13° NNW
Terra 3.7 22:08:46 27° NNW 22:08:46 27° NNW 22:11:00 10° NNW
Mayak 1.8 22:04:57 10° NNE 22:04:58 10° NNE 22:04:58 10° NNE
Cosmos 2082 Rocket 3.7 22:15:56 30° N 22:15:56 30° N 22:18:45 10° NNE
Cosmos 1833 Rocket 4.1 22:20:38 35° NW 22:20:38 35° NW 22:25:00 10° N
Cosmos 2344 4.4 22:27:11 10° NW 22:37:08 80° NE 22:38:34 72° ESE
CZ-4C R/B 3.4 22:41:28 10° NW 22:46:59 55° NW 22:46:59 55° NW
SL-16 R/B 4.2 23:15:52 10° NNW 23:18:02 24° NNW 23:18:02 24° NNW
Cosmos 2360 Rocket 4.2 23:16:57 10° N 23:19:17 23° N 23:19:17 23° N
Cosmos 2322 Rocket 4.2 23:22:49 10° NNW 23:24:52 23° NNW 23:24:52 23° NNW
Cosmos 2333 Rocket 4.4 23:39:50 10° N 23:42:25 20° NNE 23:42:25 20° NNE
